星链-5732 (STARLINK-5732 )

导读 | 豆包AI

STARLINK-5732是美国SpaceX星链互联网卫星星座的一员,于2023年2月12日发射入轨。星链计划旨在搭建全球卫星互联网,为偏远地区、海洋等地面网络覆盖盲区提供高速互联网接入服务。该卫星承担低轨通信任务,参与星座组网,助力SpaceX实现全球覆盖的通信网络布局。

基本信息
目录编号:
55572
目录名称:
STARLINK-5732
国际标识:
2023-020D
轨道中心:
EARTH
卫星名称:
星链-5732
卫星全名:
星链-5732 (STARLINK-5732 )
卫星状态:
在轨 (已飞行1173 天)
发射日期:
2023-02-12 UTC
国别 :
美国 (US)
星等 :
--
轨道信息
数据来源 国际轨道数据
星历时间: 2026-04-30T12:00:01+0800
8小时前
查看轨道信息
半长轴: 6861.253km
偏心率: 0.0001488
轨道倾角: 43.001°
近地点辐角 286.061°
升交点赤经 77.861°
平近点角 160.822°
近地点: 482.095km
远地点: 484.137km
周期: 94.268分钟
每日圈数: 15.275579
详细信息
固有亮度:
5
最大亮度:
2.5
卫星平台:
Starlink v1.5
覆盖范围:
全球
运营商:
太空探索技术公司
运营商所在国:
美国
制造商(研发单位):
太空探索技术公司
制造商所在国:
美国
使用方式:
暂无
卫星简介
星链(Starlink)计划是由太空探索技术公司(SpaceX)提出的一个巨型低轨卫星互联网星座项目,计划在2019年至2024年间在太空搭建由约1.2万颗卫星组成的“星链”网络,其中1584颗将部署在地球上空550千米处的近地轨道,并从2020年开始工作。该卫星仍在工作。
2D轨道图
3D轨道图
轨道高度分析图
轨道倾角分析图
轨道综合分析图
查看轨道综合分析图